Time,TemperatureF,DewpointF,PressureIn,WindDirection,WindDirectionDegrees,WindSpeedMPH,WindSpeedGustMPH,Humidity,HourlyPrecipIn,Conditions,Clouds,dailyrainin,SoftwareType,DateUTC
2013-07-18 00:00:00,79.4,70.0,30.07,South,189,0.0,0.0,73,0.00,,,0.00,weatherlink.com 1.10,2013-07-18 05:00:00,
2013-07-18 00:15:00,79.2,70.0,30.07,SSW,203,0.0,0.0,73,0.00,,,0.00,weatherlink.com 1.10,2013-07-18 05:15:00,
2013-07-18 00:30:00,79.5,70.0,30.07,SSW,196,0.0,0.0,73,0.00,,,0.00,weatherlink.com 1.10,2013-07-18 05:30:00,
2013-07-18 00:45:00,79.2,70.0,30.07,SSW,197,0.0,0.0,74,0.00,,,0.00,weatherlink.com 1.10,2013-07-18 05:45:00,
2013-07-18 01:01:00,78.5,70.0,30.07,SSW,208,0.0,0.0,75,0.00,,,0.00,weatherlink.com 1.10,2013-07-18 06:01:00,
2013-07-18 01:16:00,78.2,70.0,30.07,SSW,194,0.0,0.0,76,0.00,,,0.00,weatherlink.com 1.10,2013-07-18 06:16:00,
2013-07-18 01:31:00,77.8,70.0,30.07,WSW,240,0.0,0.0,77,0.00,,,0.00,weatherlink.com 1.10,2013-07-18 06:31:00,
2013-07-18 01:46:00,77.8,70.0,30.07,SSW,193,0.0,0.0,77,0.00,,,0.00,weatherlink.com 1.10,2013-07-18 06:46:00,
2013-07-18 02:01:00,77.4,70.0,30.07,SSW,196,0.0,0.0,78,0.00,,,0.00,weatherlink.com 1.10,2013-07-18 07:01:00,
2013-07-18 02:16:00,76.9,70.0,30.06,SSW,200,0.0,0.0,79,0.00,,,0.00,weatherlink.com 1.10,2013-07-18 07:16:00,
2013-07-18 02:31:00,76.6,70.0,30.06,SW,217,0.0,0.0,79,0.00,,,0.00,weatherlink.com 1.10,2013-07-18 07:31:00,
2013-07-18 02:46:00,76.5,70.0,30.06,SSW,194,0.0,0.0,79,0.00,,,0.00,weatherlink.com 1.10,2013-07-18 07:46:00,
2013-07-18 03:01:00,76.2,70.0,30.06,South,172,0.0,0.0,80,0.00,,,0.00,weatherlink.com 1.10,2013-07-18 08:01:00,
2013-07-18 03:16:00,76.1,70.0,30.05,South,191,0.0,0.0,80,0.00,,,0.00,weatherlink.com 1.10,2013-07-18 08:16:00,
2013-07-18 03:31:00,75.5,69.0,30.05,SW,216,0.0,0.0,81,0.00,,,0.00,weatherlink.com 1.10,2013-07-18 08:31:00,
2013-07-18 03:46:00,75.2,69.0,30.05,SSW,204,0.0,0.0,82,0.00,,,0.00,weatherlink.com 1.10,2013-07-18 08:46:00,
2013-07-18 04:01:00,75.1,69.0,30.05,SSW,205,0.0,0.0,82,0.00,,,0.00,weatherlink.com 1.10,2013-07-18 09:01:00,
2013-07-18 04:16:00,75.0,69.0,30.04,SSW,198,0.0,0.0,82,0.00,,,0.00,weatherlink.com 1.10,2013-07-18 09:16:00,
2013-07-18 04:31:00,74.8,69.0,30.04,SSW,196,0.0,0.0,83,0.00,,,0.00,weatherlink.com 1.10,2013-07-18 09:31:00,
2013-07-18 04:46:00,74.9,69.0,30.04,South,181,0.0,0.0,83,0.00,,,0.00,weatherlink.com 1.10,2013-07-18 09:46:00,
2013-07-18 05:01:00,74.6,69.0,30.03,SSW,206,0.0,0.0,83,0.00,,,0.00,weatherlink.com 1.10,2013-07-18 10:01:00,
2013-07-18 05:16:00,74.3,69.0,30.03,SSW,197,0.0,0.0,84,0.00,,,0.00,weatherlink.com 1.10,2013-07-18 10:16:00,
2013-07-18 05:31:00,74.0,69.0,30.02,South,184,0.0,0.0,84,0.00,,,0.00,weatherlink.com 1.10,2013-07-18 10:31:00,
2013-07-18 05:46:00,73.8,69.0,30.02,SSW,199,0.0,0.0,85,0.00,,,0.00,weatherlink.com 1.10,2013-07-18 10:46:00,
2013-07-18 06:01:00,73.7,69.0,30.02,SSW,207,0.0,0.0,85,0.00,,,0.00,weatherlink.com 1.10,2013-07-18 11:01:00,
2013-07-18 06:16:00,73.5,69.0,30.02,SSW,207,0.0,0.0,85,0.00,,,0.00,weatherlink.com 1.10,2013-07-18 11:16:00,
2013-07-18 06:31:00,73.7,69.0,30.02,SW,232,0.0,0.0,85,0.00,,,0.00,weatherlink.com 1.10,2013-07-18 11:31:00,
2013-07-18 06:46:00,74.0,69.0,30.02,SW,222,0.0,0.0,84,0.00,,,0.00,weatherlink.com 1.10,2013-07-18 11:46:00,
2013-07-18 07:01:00,74.4,69.0,30.01,SSW,196,0.0,0.0,84,0.00,,,0.00,weatherlink.com 1.10,2013-07-18 12:01:00,
2013-07-18 07:16:00,74.9,69.0,30.01,SSW,204,0.0,0.0,83,0.00,,,0.00,weatherlink.com 1.10,2013-07-18 12:16:00,
2013-07-18 07:31:00,75.4,70.0,30.01,SSW,196,0.0,0.0,83,0.00,,,0.00,weatherlink.com 1.10,2013-07-18 12:31:00,
2013-07-18 07:46:00,76.4,70.0,30.01,SW,224,0.0,0.0,81,0.00,,,0.00,weatherlink.com 1.10,2013-07-18 12:46:00,
2013-07-18 08:01:00,77.4,70.0,30.01,South,184,0.0,0.0,79,0.00,,,0.00,weatherlink.com 1.10,2013-07-18 13:01:00,
2013-07-18 08:16:00,78.4,71.0,30.01,South,186,0.0,0.0,77,0.00,,,0.00,weatherlink.com 1.10,2013-07-18 13:16:00,
2013-07-18 08:31:00,79.5,71.0,30.00,SW,215,0.0,0.0,75,0.00,,,0.00,weatherlink.com 1.10,2013-07-18 13:31:00,
2013-07-18 08:46:00,80.7,71.0,30.00,SW,223,0.0,0.0,72,0.00,,,0.00,weatherlink.com 1.10,2013-07-18 13:46:00,
2013-07-18 09:01:00,82.0,70.0,30.00,SSW,207,0.0,0.0,68,0.00,,,0.00,weatherlink.com 1.10,2013-07-18 14:01:00,
2013-07-18 09:16:00,82.9,70.0,29.99,SW,214,0.0,0.0,66,0.00,,,0.00,weatherlink.com 1.10,2013-07-18 14:16:00,
2013-07-18 09:31:00,83.4,71.0,29.99,SW,219,0.0,0.0,66,0.00,,,0.00,weatherlink.com 1.10,2013-07-18 14:31:00,
2013-07-18 09:47:00,84.3,71.0,29.99,South,170,0.0,0.0,64,0.00,,,0.00,weatherlink.com 1.10,2013-07-18 14:47:00,
2013-07-18 10:02:00,85.3,71.0,29.98,South,183,0.0,0.0,62,0.00,,,0.00,weatherlink.com 1.10,2013-07-18 15:02:00,
2013-07-18 10:17:00,86.2,71.0,29.98,SSW,212,0.0,0.0,60,0.00,,,0.00,weatherlink.com 1.10,2013-07-18 15:17:00,
2013-07-18 10:32:00,87.0,70.0,29.98,WSW,251,0.0,0.0,57,0.00,,,0.00,weatherlink.com 1.10,2013-07-18 15:32:00,
2013-07-18 10:47:00,87.4,70.0,29.98,SSW,205,0.0,0.0,57,0.00,,,0.00,weatherlink.com 1.10,2013-07-18 15:47:00,
2013-07-18 11:02:00,87.6,70.0,29.97,SSW,213,0.0,0.0,57,0.00,,,0.00,weatherlink.com 1.10,2013-07-18 16:02:00,
2013-07-18 11:17:00,88.4,70.0,29.97,SSW,200,0.0,0.0,55,0.00,,,0.00,weatherlink.com 1.10,2013-07-18 16:17:00,
2013-07-18 11:32:00,89.0,70.0,29.96,West,273,0.0,0.0,53,0.00,,,0.00,weatherlink.com 1.10,2013-07-18 16:32:00,
2013-07-18 11:47:00,89.4,71.0,29.96,SSW,199,0.0,0.0,54,0.00,,,0.00,weatherlink.com 1.10,2013-07-18 16:47:00,
2013-07-18 12:02:00,89.4,69.0,29.95,SSW,198,0.0,0.0,52,0.00,,,0.00,weatherlink.com 1.10,2013-07-18 17:02:00,
2013-07-18 12:17:00,90.3,70.0,29.95,South,178,0.0,0.0,51,0.00,,,0.00,weatherlink.com 1.10,2013-07-18 17:17:00,
2013-07-18 12:32:00,89.7,69.0,29.94,SW,217,0.0,0.0,51,0.00,,,0.00,weatherlink.com 1.10,2013-07-18 17:32:00,
2013-07-18 12:47:00,90.1,69.0,29.94,SW,223,0.0,0.0,50,0.00,,,0.00,weatherlink.com 1.10,2013-07-18 17:47:00,
2013-07-18 13:02:00,90.6,69.0,29.93,SW,225,0.0,0.0,50,0.00,,,0.00,weatherlink.com 1.10,2013-07-18 18:02:00,
2013-07-18 13:17:00,90.3,69.0,29.93,SSW,210,0.0,0.0,50,0.00,,,0.00,weatherlink.com 1.10,2013-07-18 18:17:00,
2013-07-18 13:32:00,91.3,70.0,29.92,South,170,0.0,0.0,49,0.00,,,0.00,weatherlink.com 1.10,2013-07-18 18:32:00,
2013-07-18 13:47:00,90.9,69.0,29.92,South,170,0.0,0.0,49,0.00,,,0.00,weatherlink.com 1.10,2013-07-18 18:47:00,
2013-07-18 14:02:00,90.9,69.0,29.91,SSW,192,0.0,0.0,49,0.00,,,0.00,weatherlink.com 1.10,2013-07-18 19:02:00,
2013-07-18 14:18:00,91.0,68.0,29.91,South,180,0.0,0.0,47,0.00,,,0.00,weatherlink.com 1.10,2013-07-18 19:18:00,
2013-07-18 14:32:00,91.4,69.0,29.91,SSW,199,0.0,0.0,48,0.00,,,0.00,weatherlink.com 1.10,2013-07-18 19:32:00,
2013-07-18 14:47:00,91.5,68.0,29.90,SSW,204,0.0,0.0,46,0.00,,,0.00,weatherlink.com 1.10,2013-07-18 19:47:00,
2013-07-18 15:02:00,91.7,67.0,29.89,SSW,198,0.0,0.0,44,0.00,,,0.00,weatherlink.com 1.10,2013-07-18 20:02:00,
2013-07-18 15:17:00,92.0,68.0,29.89,SSE,152,0.0,0.0,46,0.00,,,0.00,weatherlink.com 1.10,2013-07-18 20:17:00,
2013-07-18 15:32:00,91.9,68.0,29.88,West,261,0.0,0.0,46,0.00,,,0.00,weatherlink.com 1.10,2013-07-18 20:32:00,
2013-07-18 15:47:00,91.5,68.0,29.88,SSW,196,0.0,0.0,46,0.00,,,0.00,weatherlink.com 1.10,2013-07-18 20:47:00,
2013-07-18 16:02:00,92.7,70.0,29.88,SSW,211,0.0,0.0,47,0.00,,,0.00,weatherlink.com 1.10,2013-07-18 21:02:00,
2013-07-18 16:17:00,91.6,69.0,29.86,SW,226,0.0,0.0,48,0.00,,,0.00,weatherlink.com 1.10,2013-07-18 21:17:00,
2013-07-18 16:32:00,91.7,69.0,29.86,SW,230,0.0,0.0,48,0.00,,,0.00,weatherlink.com 1.10,2013-07-18 21:32:00,
2013-07-18 16:47:00,91.7,69.0,29.86,WSW,244,0.0,0.0,48,0.00,,,0.00,weatherlink.com 1.10,2013-07-18 21:47:00,
2013-07-18 17:02:00,91.5,69.0,29.85,WSW,248,0.0,0.0,47,0.00,,,0.00,weatherlink.com 1.10,2013-07-18 22:02:00,
2013-07-18 17:18:00,91.0,69.0,29.84,West,271,0.0,0.0,49,0.00,,,0.00,weatherlink.com 1.10,2013-07-18 22:18:00,
2013-07-18 17:32:00,91.2,70.0,29.83,West,274,0.0,0.0,50,0.00,,,0.00,weatherlink.com 1.10,2013-07-18 22:32:00,
2013-07-18 17:48:00,91.0,69.0,29.83,SSW,198,0.0,0.0,49,0.00,,,0.00,weatherlink.com 1.10,2013-07-18 22:48:00,
2013-07-18 18:03:00,90.6,69.0,29.82,SW,217,0.0,0.0,50,0.00,,,0.00,weatherlink.com 1.10,2013-07-18 23:03:00,
2013-07-18 18:18:00,90.7,70.0,29.82,South,190,0.0,0.0,50,0.00,,,0.00,weatherlink.com 1.10,2013-07-18 23:18:00,
2013-07-18 18:33:00,90.0,69.0,29.81,SSE,167,0.0,0.0,51,0.00,,,0.00,weatherlink.com 1.10,2013-07-18 23:33:00,
2013-07-18 18:48:00,89.9,69.0,29.81,SW,225,0.0,0.0,50,0.00,,,0.00,weatherlink.com 1.10,2013-07-18 23:48:00,
2013-07-18 19:03:00,89.4,69.0,29.81,WSW,241,0.0,0.0,51,0.00,,,0.00,weatherlink.com 1.10,2013-07-19 00:03:00,
2013-07-18 19:18:00,89.2,69.0,29.81,SSW,213,0.0,0.0,52,0.00,,,0.00,weatherlink.com 1.10,2013-07-19 00:18:00,
2013-07-18 19:33:00,88.8,69.0,29.81,SSW,195,0.0,0.0,53,0.00,,,0.00,weatherlink.com 1.10,2013-07-19 00:33:00,
2013-07-18 19:48:00,88.4,70.0,29.81,SSE,163,0.0,0.0,54,0.00,,,0.00,weatherlink.com 1.10,2013-07-19 00:48:00,
2013-07-18 20:03:00,87.7,69.0,29.81,SSW,198,0.0,0.0,54,0.00,,,0.00,weatherlink.com 1.10,2013-07-19 01:03:00,
2013-07-18 20:18:00,87.0,69.0,29.81,South,186,0.0,0.0,55,0.00,,,0.00,weatherlink.com 1.10,2013-07-19 01:18:00,
2013-07-18 20:33:00,86.5,69.0,29.81,South,173,0.0,0.0,56,0.00,,,0.00,weatherlink.com 1.10,2013-07-19 01:33:00,
2013-07-18 20:48:00,85.8,69.0,29.80,South,189,0.0,0.0,57,0.00,,,0.00,weatherlink.com 1.10,2013-07-19 01:48:00,
2013-07-18 21:03:00,85.2,69.0,29.80,South,189,0.0,0.0,59,0.00,,,0.00,weatherlink.com 1.10,2013-07-19 02:03:00,
2013-07-18 21:18:00,84.6,69.0,29.80,SSW,207,0.0,0.0,59,0.00,,,0.00,weatherlink.com 1.10,2013-07-19 02:18:00,
2013-07-18 21:33:00,84.1,69.0,29.80,SW,214,0.0,0.0,60,0.00,,,0.00,weatherlink.com 1.10,2013-07-19 02:33:00,
2013-07-18 21:48:00,83.4,69.0,29.80,SSE,168,0.0,0.0,62,0.00,,,0.00,weatherlink.com 1.10,2013-07-19 02:48:00,
2013-07-18 22:03:00,82.6,69.0,29.80,South,180,0.0,0.0,63,0.00,,,0.00,weatherlink.com 1.10,2013-07-19 03:03:00,
2013-07-18 22:18:00,81.8,69.0,29.80,SSW,193,0.0,0.0,65,0.00,,,0.00,weatherlink.com 1.10,2013-07-19 03:18:00,
2013-07-18 22:33:00,81.4,69.0,29.80,South,184,0.0,0.0,66,0.00,,,0.00,weatherlink.com 1.10,2013-07-19 03:33:00,
2013-07-18 22:48:00,81.2,69.0,29.79,SSW,205,0.0,0.0,66,0.00,,,0.00,weatherlink.com 1.10,2013-07-19 03:48:00,
2013-07-18 23:03:00,80.8,69.0,29.79,SSW,210,0.0,0.0,68,0.00,,,0.00,weatherlink.com 1.10,2013-07-19 04:03:00,
2013-07-18 23:18:00,80.5,69.0,29.79,SSW,211,0.0,0.0,69,0.00,,,0.00,weatherlink.com 1.10,2013-07-19 04:18:00,
2013-07-18 23:33:00,80.2,70.0,29.79,South,171,0.0,0.0,70,0.00,,,0.00,weatherlink.com 1.10,2013-07-19 04:33:00,
2013-07-18 23:48:00,80.2,70.0,29.79,SSW,205,0.0,0.0,70,0.00,,,0.00,weatherlink.com 1.10,2013-07-19 04:48:00,